GW3079 Weather Reports


time (UTC)temp
C
wind
direction
speed
KPH
gust
KPH
rain 1hr
cm
rain 24hr
cm
rain mn
cm
humidity
%
barometer
mb
20260504151005 16 180 0.0 0.0 0.00 0.00 0.00 74 1010.9
20260504150508 16 181 0.0 0.0 0.00 0.00 0.00 76 1010.9
20260504140502 11 352 0.0 0.0 0.00 0.00 0.00 87 1010.4
20260504130502 9 45 0.0 0.0 0.00 0.00 0.00 91 1010.0
20260504110506 10 95 0.0 0.0 0.00 0.00 0.00 89 1010.1
20260504100506 11 96 0.0 0.0 0.00 0.00 0.00 86 1009.9
20260504081518 13 143 0.0 1.6 0.00 0.00 0.00 82 1009.7
20260504081510 13 143 0.0 1.6 0.00 0.00 0.00 83 1010.1
20260504081007 12 143 0.0 1.6 0.00 0.00 0.00 82 1009.6
20260504080507 12 143 0.0 1.6 0.00 0.00 0.00 82 1009.7
20260504050510 17 41 0.0 3.2 0.00 0.00 0.00 62 1009.5
20260504045509 18 42 0.0 1.6 0.00 0.00 0.00 60 1009.5
20260504045012 18 43 0.0 0.0 0.00 0.00 0.00 59 1009.6
20260504044552 18 42 0.0 1.6 0.00 0.00 0.00 58 1010.0
20260504044529 19 42 0.0 3.2 0.00 0.00 0.00 57 1009.6
20260504044009 19 42 0.0 3.2 0.00 0.00 0.00 56 1009.6
20260504043511 19 42 1.6 3.2 0.00 0.00 0.00 55 1009.6
20260504043100 20 39 1.6 4.8 0.00 0.00 0.00 55 1009.9
20260504043033 20 39 1.6 4.8 0.00 0.00 0.00 54 1009.5
20260504042509 20 39 3.2 4.8 0.00 0.00 0.00 53 1009.5
20260504042009 20 75 0.0 4.8 0.00 0.00 0.00 54 1009.5
20260504041551 20 88 1.6 4.8 0.00 0.00 0.00 54 1009.8
20260504041519 20 57 1.6 4.8 0.00 0.00 0.00 53 1009.5
20260504041010 21 134 0.0 1.6 0.00 0.00 0.00 54 1009.4
20260504040510 21 134 0.0 1.6 0.00 0.00 0.00 51 1009.4
20260504040025 21 134 0.0 1.6 0.00 0.00 0.00 51 1009.4
20260504035509 22 111 0.0 4.8 0.00 0.00 0.00 51 1009.3
20260504035010 22 113 0.0 4.8 0.00 0.00 0.00 50 1009.2
20260504034558 22 127 0.0 3.2 0.00 0.00 0.00 51 1009.6
20260504034526 22 127 0.0 4.8 0.00 0.00 0.00 50 1009.1
20260504034010 22 122 0.0 4.8 0.00 0.00 0.00 49 1009.1
20260504033507 23 136 0.0 3.2 0.00 0.00 0.00 48 1009.1
20260504033053 23 131 0.0 1.6 0.00 0.00 0.00 48 1009.5
20260504033027 23 131 0.0 1.6 0.00 0.00 0.00 47 1009.0
20260504032510 24 142 0.0 1.6 0.00 0.00 0.00 45 1009.0
20260504032010 25 143 0.0 1.6 0.00 0.00 0.00 44 1009.1
20260504031549 25 139 0.0 1.6 0.00 0.00 0.00 43 1009.5
20260504031528 25 139 0.0 1.6 0.00 0.00 0.00 43 1009.2
20260504031006 26 139 0.0 1.6 0.00 0.00 0.00 41 1009.2
20260504030510 26 139 0.0 1.6 0.00 0.00 0.00 38 1009.2
20260504030049 27 146 0.0 1.6 0.00 0.00 0.00 36 1009.6
20260504030022 27 202 0.0 1.6 0.00 0.00 0.00 34 1009.2
20260504025507 28 202 0.0 1.6 0.00 0.00 0.00 32 1009.2
20260504025014 28 260 0.0 3.2 0.00 0.00 0.00 30 1009.2
20260504024546 28 269 0.0 3.2 0.00 0.00 0.00 30 1009.6
20260504024525 28 269 0.0 3.2 0.00 0.00 0.00 29 1009.2
20260504024008 28 260 0.0 3.2 0.00 0.00 0.00 28 1009.2
20260504023509 28 263 0.0 4.8 0.00 0.00 0.00 28 1009.1
20260504023045 28 251 0.0 4.8 0.00 0.00 0.00 28 1009.6
20260504023029 28 251 0.0 6.4 0.00 0.00 0.00 28 1009.1
20260504022510 28 224 0.0 6.4 0.00 0.00 0.00 27 1009.1
20260504022011 28 244 1.6 4.8 0.00 0.00 0.00 27 1009.2
20260504021545 28 264 0.0 9.7 0.00 0.00 0.00 29 1009.6
20260504021535 28 288 0.0 12.9 0.00 0.00 0.00 29 1009.2
20260504021010 28 274 1.6 12.9 0.00 0.00 0.00 29 1009.2
20260504020510 28 272 1.6 6.4 0.00 0.00 0.00 30 1009.3
20260504020053 28 280 1.6 6.4 0.00 0.00 0.00 29 1009.7
20260504020036 29 281 3.2 6.4 0.00 0.00 0.00 29 1009.3
20260504015507 29 283 0.0 6.4 0.00 0.00 0.00 30 1009.3
20260504015008 28 278 0.0 6.4 0.00 0.00 0.00 30 1009.3
20260504014549 28 271 1.6 6.4 0.00 0.00 0.00 29 1009.9
20260504014525 28 217 3.2 6.4 0.00 0.00 0.00 29 1009.4
20260504014009 29 290 0.0 6.4 0.00 0.00 0.00 28 1009.5
20260504013513 29 276 1.6 6.4 0.00 0.00 0.00 28 1009.5
20260504013039 28 290 0.0 11.3 0.00 0.00 0.00 29 1010.0
20260504013034 28 290 1.6 11.3 0.00 0.00 0.00 28 1009.6
20260504012509 28 288 3.2 11.3 0.00 0.00 0.00 27 1009.7
20260504012010 28 159 4.8 11.3 0.00 0.00 0.00 28 1009.8
20260504011537 28 282 1.6 9.7 0.00 0.00 0.00 28 1010.1
20260504011527 28 330 3.2 9.7 0.00 0.00 0.00 28 1009.8
20260504011009 28 251 1.6 12.9 0.00 0.00 0.00 28 1009.9
20260504010510 28 272 3.2 12.9 0.00 0.00 0.00 27 1009.9
20260504010036 28 223 6.4 12.9 0.00 0.00 0.00 27 1010.3
20260504010030 28 181 4.8 12.9 0.00 0.00 0.00 28 1009.9
20260504005510 28 190 3.2 16.1 0.00 0.00 0.00 28 1010.0
20260504005003 28 179 4.8 16.1 0.00 0.00 0.00 28 1010.1
20260504004535 28 269 4.8 16.1 0.00 0.00 0.00 28 1010.5
20260504004511 28 289 4.8 14.5 0.00 0.00 0.00 28 1010.1
20260504004003 28 232 8.0 14.5 0.00 0.00 0.00 30 1010.2
20260504003502 28 278 4.8 12.9 0.00 0.00 0.00 30 1010.3
20260504003031 28 269 1.6 9.7 0.00 0.00 0.00 31 1010.6
20260504003004 28 168 1.6 9.7 0.00 0.00 0.00 31 1010.3
20260504002502 28 179 4.8 11.3 0.00 0.00 0.00 31 1010.3
20260504002003 28 246 3.2 14.5 0.00 0.00 0.00 30 1010.3
20260504001534 28 271 3.2 14.5 0.00 0.00 0.00 32 1010.7
20260504001527 28 282 6.4 14.5 0.00 0.00 0.00 32 1010.3
20260504001005 28 262 4.8 12.9 0.00 0.00 0.00 32 1010.3
20260504000508 28 250 6.4 11.3 0.00 0.00 0.00 32 1010.4
20260504000029 28 283 4.8 11.3 0.00 0.00 0.00 33 1010.9
20260504000015 28 289 4.8 11.3 0.00 0.00 0.00 33 1010.4
20260503235505 28 264 3.2 11.3 0.00 0.00 0.00 32 1010.4
20260503235008 28 290 6.4 11.3 0.00 0.00 0.00 32 1010.4
20260503234527 28 285 1.6 11.3 0.00 0.00 0.00 33 1010.9
20260503234520 28 252 1.6 11.3 0.00 0.00 0.00 32 1010.4
20260503234009 28 265 6.4 11.3 0.00 0.00 0.00 31 1010.4
20260503233504 28 266 0.0 9.7 0.00 0.00 0.00 33 1010.5
20260503233024 28 279 3.2 9.7 0.00 0.00 0.00 33 1011.1
20260503233004 28 288 3.2 9.7 0.00 0.00 0.00 32 1010.5
20260503232502 28 288 3.2 11.3 0.00 0.00 0.00 32 1010.6
20260503232002 28 270 3.2 11.3 0.00 0.00 0.00 33 1010.7
20260503231523 28 248 4.8 9.7 0.00 0.00 0.00 35 1011.3
20260503231506 28 302 4.8 9.7 0.00 0.00 0.00 34 1010.9
20260503231004 28 294 1.6 12.9 0.00 0.00 0.00 35 1010.9
20260503230508 28 293 3.2 12.9 0.00 0.00 0.00 35 1011.0
20260503230018 28 268 4.8 12.9 0.00 0.00 0.00 35 1011.4
20260503230014 28 284 4.8 12.9 0.00 0.00 0.00 35 1011.0
20260503225508 28 279 4.8 12.9 0.00 0.00 0.00 35 1011.1
20260503225006 28 183 1.6 9.7 0.00 0.00 0.00 37 1011.2
20260503224518 28 285 4.8 11.3 0.00 0.00 0.00 38 1011.4
20260503224515 28 297 4.8 11.3 0.00 0.00 0.00 38 1011.7
20260503224008 28 229 3.2 12.9 0.00 0.00 0.00 36 1011.4
20260503223508 28 259 4.8 12.9 0.00 0.00 0.00 35 1011.5
20260503223020 28 210 4.8 11.3 0.00 0.00 0.00 36 1011.6
20260503223013 28 265 4.8 11.3 0.00 0.00 0.00 36 1011.9
20260503222510 28 276 3.2 11.3 0.00 0.00 0.00 38 1011.6
20260503222003 28 138 1.6 11.3 0.00 0.00 0.00 40 1011.7
20260503221510 27 276 4.8 12.9 0.00 0.00 0.00 41 1012.1
20260503221503 27 271 4.8 12.9 0.00 0.00 0.00 41 1011.7
20260503221005 27 284 6.4 12.9 0.00 0.00 0.00 42 1011.9
20260503220507 27 191 4.8 9.7 0.00 0.00 0.00 42 1011.9
20260503220021 28 300 3.2 9.7 0.00 0.00 0.00 42 1012.0
20260503220008 28 240 1.6 9.7 0.00 0.00 0.00 43 1012.3
20260503215507 28 271 1.6 9.7 0.00 0.00 0.00 42 1012.1
20260503215011 27 261 3.2 9.7 0.00 0.00 0.00 41 1012.2
20260503214528 28 238 4.8 8.0 0.00 0.00 0.00 43 1012.2
20260503214518 28 276 3.2 8.0 0.00 0.00 0.00 43 1012.5
20260503214006 28 262 1.6 8.0 0.00 0.00 0.00 41 1012.3
20260503213506 28 231 0.0 8.0 0.00 0.00 0.00 41 1012.3
20260503213029 27 283 0.0 9.7 0.00 0.00 0.00 41 1012.3
20260503213002 27 283 0.0 9.7 0.00 0.00 0.00 42 1012.7
20260503212511 28 243 3.2 12.9 0.00 0.00 0.00 41 1012.4
20260503212013 27 198 1.6 12.9 0.00 0.00 0.00 42 1012.4
20260503211613 27 276 3.2 12.9 0.00 0.00 0.00 41 1012.8
20260503211521 27 300 0.0 9.7 0.00 0.00 0.00 42 1012.4
20260503211009 26 276 3.2 9.7 0.00 0.00 0.00 41 1012.5
20260503210507 26 206 1.6 9.7 0.00 0.00 0.00 42 1012.6
20260503210055 26 268 3.2 11.3 0.00 0.00 0.00 43 1013.0
20260503210011 26 290 3.2 11.3 0.00 0.00 0.00 43 1012.7
20260503205507 26 282 6.4 11.3 0.00 0.00 0.00 43 1012.7
20260503205010 26 259 4.8 11.3 0.00 0.00 0.00 42 1012.8
20260503204553 26 297 6.4 11.3 0.00 0.00 0.00 43 1013.3
20260503204523 26 285 4.8 11.3 0.00 0.00 0.00 43 1012.8
20260503204006 26 206 1.6 14.5 0.00 0.00 0.00 45 1012.9
20260503203510 26 281 3.2 14.5 0.00 0.00 0.00 45 1012.9
20260503203053 26 288 4.8 14.5 0.00 0.00 0.00 44 1013.4
20260503203018 26 274 4.8 14.5 0.00 0.00 0.00 44 1013.0
20260503202511 26 276 4.8 8.0 0.00 0.00 0.00 42 1013.0
20260503202011 26 275 1.6 6.4 0.00 0.00 0.00 43 1013.0
20260503201551 26 271 1.6 6.4 0.00 0.00 0.00 42 1013.5
20260503201522 27 274 0.0 6.4 0.00 0.00 0.00 42 1013.0
20260503201007 26 181 1.6 6.4 0.00 0.00 0.00 43 1013.1
20260503200510 26 169 3.2 11.3 0.00 0.00 0.00 42 1013.3
20260503200056 26 214 0.0 11.3 0.00 0.00 0.00 43 1013.9
20260503200026 26 176 0.0 11.3 0.00 0.00 0.00 43 1013.3
20260503195510 25 196 6.4 11.3 0.00 0.00 0.00 42 1013.4
20260503195003 25 150 0.0 11.3 0.00 0.00 0.00 43 1013.4
20260503194545 24 255 3.2 11.3 0.00 0.00 0.00 41 1014.1
20260503194507 24 284 3.2 11.3 0.00 0.00 0.00 41 1013.4
20260503194005 24 319 3.2 9.7 0.00 0.00 0.00 44 1013.6
20260503193507 24 283 3.2 11.3 0.00 0.00 0.00 43 1013.7
20260503193052 24 226 3.2 11.3 0.00 0.00 0.00 43 1014.3
20260503193015 23 281 4.8 11.3 0.00 0.00 0.00 42 1013.8
20260503192507 24 300 3.2 8.0 0.00 0.00 0.00 44 1013.8
20260503192007 25 259 3.2 8.0 0.00 0.00 0.00 43 1014.0
20260503191544 25 297 3.2 9.7 0.00 0.00 0.00 43 1014.4
20260503191518 25 285 4.8 9.7 0.00 0.00 0.00 44 1014.0
20260503191010 24 271 3.2 9.7 0.00 0.00 0.00 45 1014.0
20260503190507 24 247 1.6 6.4 0.00 0.00 0.00 47 1014.0
20260503190047 24 248 1.6 9.7 0.00 0.00 0.00 49 1014.5
20260503190031 24 259 0.0 9.7 0.00 0.00 0.00 48 1014.0
20260503185508 24 322 1.6 9.7 0.00 0.00 0.00 47 1014.1
20260503185011 23 297 0.0 6.4 0.00 0.00 0.00 48 1014.2
20260503184543 23 290 0.0 6.4 0.00 0.00 0.00 49 1014.7
20260503184526 23 326 1.6 6.4 0.00 0.00 0.00 50 1014.2
20260503184009 23 284 1.6 9.7 0.00 0.00 0.00 50 1014.2
20260503183505 23 283 0.0 9.7 0.00 0.00 0.00 51 1014.2
20260503183040 23 276 3.2 9.7 0.00 0.00 0.00 50 1014.8
20260503183015 23 208 3.2 8.0 0.00 0.00 0.00 50 1014.3
20260503182507 23 282 3.2 8.0 0.00 0.00 0.00 46 1014.3
20260503182009 23 316 0.0 6.4 0.00 0.00 0.00 46 1014.3
20260503181538 23 65 1.6 6.4 0.00 0.00 0.00 47 1014.9
20260503181009 23 110 1.6 8.0 0.00 0.00 0.00 44 1014.3
20260503180507 23 224 1.6 6.4 0.00 0.00 0.00 46 1014.3
20260503180046 23 207 1.6 6.4 0.00 0.00 0.00 49 1014.9
20260503180032 23 208 0.0 6.4 0.00 0.00 0.00 48 1014.4
20260503175515 23 321 3.2 6.4 0.00 0.00 0.00 47 1014.4
20260503175007 22 171 1.6 8.0 0.00 0.00 0.00 48 1014.5
20260503174541 22 172 0.0 8.0 0.00 0.00 0.00 51 1015.1
20260503174525 22 167 0.0 8.0 0.00 0.00 0.00 51 1014.5
20260503174011 22 172 1.6 6.4 0.00 0.00 0.00 50 1014.6
20260503173034 22 199 1.6 6.4 0.00 0.00 0.00 53 1015.3
20260503173029 22 193 3.2 6.4 0.00 0.00 0.00 52 1014.8
20260503172512 22 158 0.0 4.8 0.00 0.00 0.00 55 1014.8
20260503172005 21 167 1.6 6.4 0.00 0.00 0.00 53 1014.9
20260503171524 22 180 0.0 6.4 0.00 0.00 0.00 55 1015.4
20260503171005 22 205 0.0 3.2 0.00 0.00 0.00 53 1015.0
20260503170509 22 151 0.0 3.2 0.00 0.00 0.00 57 1015.0